This is the latest recevied weather packets stored in our database for station/object W6TKD-13. If no packets are shown the sender has not sent any weather packets the latest 10 day(s).
| Time | Temp. | Humidity | Pressure | Rain* | Wind** | Luminosity | Snow |
|---|---|---|---|---|---|---|---|
| 1788137369 | 90° F | 16% | 758.9 mmHg | 0 in | - | - | - |
| 1788136702 | 91° F | 15% | 758.9 mmHg | 0 in | - | - | - |
| 1788136035 | 93° F | 15% | 759.1 mmHg | 0 in | - | - | - |
| 1788135368 | 95° F | 14% | 759.1 mmHg | 0 in | - | - | - |
| 1788134702 | 97° F | 14% | 759.1 mmHg | 0 in | - | - | - |
| 1788134033 | 100° F | 13% | 759.1 mmHg | 0 in | - | - | - |
| 1788133367 | 104° F | 12% | 759 mmHg | 0 in | - | - | - |
| 1788132700 | 106° F | 12% | 759 mmHg | 0 in | - | - | - |
| 1788132033 | 107° F | 12% | 759 mmHg | 0 in | - | - | - |
| 1788131366 | 107° F | 12% | 759 mmHg | 0 in | - | - | - |
| 1788130699 | 107° F | 12% | 759.1 mmHg | 0 in | - | - | - |
| 1788130031 | 107° F | 12% | 759.1 mmHg | 0 in | - | - | - |
| 1788129364 | 107° F | 12% | 759.1 mmHg | 0 in | - | - | - |
| 1788128698 | 109° F | 12% | 759.3 mmHg | 0 in | - | - | - |
| 1788128032 | 111° F | 12% | 759.3 mmHg | 0 in | - | - | - |
| 1788127364 | 111° F | 12% | 759.4 mmHg | 0 in | - | - | - |
| 1788126697 | 112° F | 12% | 759.5 mmHg | 0 in | - | - | - |
| 1788126030 | 112° F | 12% | 759.6 mmHg | 0 in | - | - | - |
| 1788125364 | 112° F | 12% | 759.7 mmHg | 0 in | - | - | - |
| 1788124696 | 110° F | 13% | 759.7 mmHg | 0 in | - | - | - |
| 1788124032 | 109° F | 13% | 759.8 mmHg | 0 in | - | - | - |
| 1788123364 | 108° F | 13% | 759.9 mmHg | 0 in | - | - | - |
| 1788122695 | 107° F | 14% | 759.8 mmHg | 0 in | - | - | - |
| 1788122028 | 105° F | 15% | 760 mmHg | 0 in | - | - | - |
| 1788121363 | 102° F | 16% | 760 mmHg | 0 in | - | - | - |
* Rain since midnight (hover to see other rain measurements)
** Current wind speed in m/s (hover to see current wind gust speed)